Ellensburg, WA
on Saturday, February 16, 2013

Saturday
Previous Day Next Day
Daily Summary
 ActualAverage (KYKM)Record (KYKM)
Temperature
Mean Temperature °F 36°F  
Max Temperature 53°F 47°F 67°F (1977)
Min Temperature 26°F 26°F 3°F (1956)
Degree Days
Heating Degree Days 26 29  
Month to date heating degree days 481  
Since 1 July heating degree days 4199  
Cooling Degree Days 0 0  
Month to date cooling degree days 0  
Year to date cooling degree days 0  
Moisture
Dew Point 28°F   
Average Humidity 75    
Maximum Humidity 88    
Minimum Humidity 45    
Precipitation
Precipitation 0.00 in 0.03 in 0.42 in (1959)
Month to date precipitation 0.46  
Year to date precipitation 1.60  
Snow
Snow 0.00 in 0.10 in 3.40 in (1989)
Month to date snowfall 1.7  
Year to date snowfall 7.0  
Since 1 July snowfall 20.0  
Snow Depth in   
Wind
Wind Speed 5 mph   
Max Wind Speed 26 mph   
Max Gust Speed 37 mph   
Visibility 6 miles   
Events Fog   

Key: T is trace of precipitation, MM is missing value
Source: NWS Daily Summary
Time(PST)TemperatureDew PointHumidity Pressure Visibility Wind DirectionWind SpeedGust SpeedPrecipitationEvents Conditions
12:53 AM 30.0°F 25.0°F 82% 30.25 in 10.0 miles Calm Calm - N/A   Clear
1:53 AM 30.0°F 25.0°F 82% 30.22 in 10.0 miles East 3.5 mph - N/A   Clear
2:53 AM 28.0°F 23.0°F 81% 30.21 in 7.0 miles NE 3.5 mph - N/A   Clear
3:53 AM 28.0°F 23.0°F 81% 30.19 in 7.0 miles Calm Calm - N/A   Clear
4:53 AM 26.1°F 21.9°F 84% 30.17 in 7.0 miles Calm Calm - N/A   Clear
5:53 AM 26.1°F 21.0°F 81% 30.17 in 6.0 miles North 3.5 mph - N/A   Haze
6:42 AM 26.6°F 21.2°F 80% 30.11 in 3.0 miles ESE 3.5 mph - N/A   Haze
6:50 AM 26.6°F 21.2°F 80% 30.11 in 6.0 miles SE 3.5 mph - N/A   Haze
6:53 AM 27.0°F 21.9°F 81% 30.15 in 4.0 miles East 4.6 mph - N/A   Haze
6:55 AM 26.6°F 23.0°F 86% 30.11 in 1.5 miles Calm Calm - N/A   Mostly Cloudy
6:57 AM 28.4°F 23.0°F 80% 30.11 in 0.8 miles Calm Calm - N/A   Haze
7:53 AM 30.0°F 27.0°F 88% 30.17 in 0.2 miles Calm Calm - N/A Fog Light Freezing Fog
8:24 AM 32.0°F 28.4°F 87% 30.11 in 1.0 miles Calm Calm - N/A   Overcast
8:29 AM 32.0°F 28.4°F 87% 30.11 in 1.2 miles Calm Calm - N/A   Overcast
8:34 AM 32.0°F 28.4°F 87% 30.11 in 0.8 miles Calm Calm - N/A   Overcast
8:53 AM 32.0°F 28.9°F 88% 30.16 in 0.2 miles Calm Calm - N/A Fog Fog
9:53 AM 35.1°F 30.9°F 85% 30.14 in 0.5 miles Calm Calm - N/A Fog Fog
10:01 AM 35.6°F 30.2°F 81% 30.09 in 1.0 miles ESE 3.5 mph - N/A   Overcast
10:08 AM 35.6°F 30.2°F 81% 30.09 in 2.0 miles Calm Calm - N/A   Overcast
10:25 AM 35.6°F 30.2°F 81% 30.09 in 4.0 miles Calm Calm - N/A   Haze
10:41 AM 37.4°F 32.0°F 81% 30.08 in 6.0 miles Calm Calm - N/A   Haze
10:53 AM 37.9°F 32.0°F 79% 30.11 in 9.0 miles SW 3.5 mph - N/A   Clear
11:53 AM 48.0°F 35.1°F 61% 30.08 in 10.0 miles SSW 8.1 mph - N/A   Clear
12:53 PM 53.1°F 32.0°F 45% 30.05 in 10.0 miles NW 23.0 mph 32.2 mph N/A   Mostly Cloudy
1:53 PM 52.0°F 33.1°F 49% 30.04 in 10.0 miles NW 23.0 mph 29.9 mph N/A   Scattered Clouds
2:53 PM 48.0°F 33.1°F 56% 30.06 in 10.0 miles NW 24.2 mph 36.8 mph N/A   Partly Cloudy
3:53 PM 48.0°F 30.0°F 50% 30.05 in 10.0 miles NW 26.5 mph - N/A   Clear
4:53 PM 44.1°F 30.0°F 58% 30.06 in 10.0 miles NNW 11.5 mph - N/A   Clear
5:53 PM 39.9°F 28.9°F 65% 30.05 in 10.0 miles NW 15.0 mph - N/A   Clear
6:53 PM 39.0°F 28.9°F 67% 30.05 in 10.0 miles NW 19.6 mph - N/A   Clear
7:53 PM 37.9°F 28.9°F 70% 30.07 in 10.0 miles NW 15.0 mph - N/A   Clear
8:53 PM 37.9°F 30.0°F 73% 30.07 in 10.0 miles NW 18.4 mph 24.2 mph N/A   Clear
9:53 PM 37.9°F 28.9°F 70% 30.06 in 10.0 miles NW 18.4 mph 29.9 mph N/A   Clear
10:53 PM 37.9°F 27.0°F 65% 30.04 in 10.0 miles NW 21.9 mph 35.7 mph N/A   Clear
11:53 PM 37.0°F 27.0°F 67% 30.06 in 10.0 miles NW 11.5 mph - N/A   Clear
Moon Phase
Feb. 16 Feb. 17 Feb. 25 Mar. 04 Mar. 11
Sunrise:07:04 AM (PST) Moon Rise:09:52 AM (PST)2/16
Sunset:05:28 PM (PST) Moon Set:12:00 AM (PST)2/16

Copyright © 2014 The Weather Underground, Inc.